NOAA 16 DEB, 41144

Orbit data source: Space-Track

NOAA 16 DEB, 41144 is space debris in SSO originally from a launch on Thu, 21 Sep 2000 UTC launched from the Air Force Western Test Range (AFWTR). Debris objects in space refer to the collection of defunct objects orbiting the Earth. Examples of debris include non-operational satellites, rocket bodies, and fragments generated from explosions, collisions, or faulty payload assembly.

Loading next visibility...
Identifier
41144, 2000-055CB
Orbit
SSO
Country
Flag of USUS
Related business
Manufacturer
Unknown
Mission
Spacecraft
Bus & Motor
Unknown
Mass
Unknown
Launch date (UTC)
2000-09-21 (25 years ago)
Launch vehicle
Unknown
Launch site
Air Force Western Test Range (AFWTR)
Object type
Payload
Rocket body
Debris
Shape & HBR
Unknown shape, 0.1 m
Radar Cross Section
Small (<0.1 m²)

Expand to show TLE details & history
Last TLE update: 1 day ago

TLE from 1 day ago
0 NOAA 16 DEB
1 41144U 00055CB  26037.36416048  .00005319  00000-0  20849-2 0  9997
2 41144  98.6108  88.1462 0029581 156.9771 203.2744 14.29581809526976
Epoch: 2026-02-06T08:44Z
TLE epoch observation values (Epoch: 2026-02-06T08:44:23.465Z)
Latitude
-0.00003°
Longitude
-179.45466°
Altitude
815.561 km
Speed
7.435 km/s
True Right ascension
05h 52m 35s
True Declination
0° 00' 00"
Sunlit
Object was in full shadow at epoch
Visualization orbit readout
Latitude
Unknown
Longitude
Unknown
Altitude
Unknown
Speed
Unknown
Apparent Right ascension
Unknown
Apparent Declination
Unknown
Sunlit
N/A
Visualization observer readout
Local Sidereal Time
12:42:17
Azimuth
Unknown
Elevation
Unknown
Doppler factor
Unknown
Orbital elements
Apogee altitude
811.475 km
Perigee altitude
769.065 km
Semi-major axis
7,168.407 km
Eccentricity
0.00296
Inclination
98.6108°
RAAN
88.1462°
Arg. of periapsis
156.9771°
True anomaly
203.14091°
Mean anomaly
203.2744°
Eccentric anomaly
203.20761°
Mean motion
3.5761 °/min
Orbital period
100.67 mins
BSTAR
0.0020849
Loading maneuver chart data...
Computing Atmospheric mass density...
Loading historical data...
Loading historical data...
Loading historical data...
Loading historical data...
Loading historical data...
Loading historical data...
Loading historical data...

Documentation

Showing up to 5 results
|